Torna al catalogo

JILIN-01 KUANFU 02B 3

AttivoScienzaSSO
NORAD 61191·PAYLOAD·🇨🇳 China

Lanciato Sep 20, 2024 da Taiyuan Satellite Launch Center

Loading…

Prossimi Passaggi (prossime 24 ore)

TLE

AggiornatoSource: Space-Track

Epoca: Sep 14, 2026, 13:11 UTC

1 61191U 24169C   26257.54932287  .00002471  00000-0  15825-3 0  9990
2 61191  97.5537 345.5309 0013486   8.5792 351.5665 15.09407940109301

Traccia JILIN-01 KUANFU 02B 3 in tempo reale con AllMySat

Download on the App Store